CWEU

Eureka  Airport

Eureka, Canada
Issued Wind Visibility Ceiling Temperature Dew Point Humidity Barometer
Nov-18
03:00 UTC
030°
3 KTS
15 miles   -33° C
-27° F
-37° C
-35° F
67% 30.49" Hg
1032.9 hPa
VFR
Nov-18
02:00 UTC
080°
3 KTS
15 miles   -34° C
-29° F
-37° C
-35° F
74% 30.48" Hg
1032.6 hPa
VFR
Nov-18
01:00 UTC
070°
3 KTS
15 miles   -35° C
-31° F
-38° C
-36° F
74% 30.47" Hg
1032.2 hPa
VFR
Nov-18
00:00 UTC
060°
3 KTS
15 miles   -33° C
-27° F
-37° C
-35° F
67% 30.46" Hg
1031.8 hPa
VFR
Nov-17
23:00 UTC
060°
3 KTS
15 miles   -34° C
-29° F
-38° C
-36° F
67% 30.44" Hg
1031.3 hPa
VFR
Nov-17
22:00 UTC
15 miles   -36° C
-33° F
-39° C
-38° F
74% 30.42" Hg
1030.6 hPa
VFR
Nov-17
21:00 UTC
060°
4 KTS
15 miles   -36° C
-33° F
-40° C
-40° F
66% 30.41" Hg
1030.3 hPa
VFR
Nov-17
20:00 UTC
130°
6 KTS
15 miles   -35° C
-31° F
-39° C
-38° F
67% 30.39" Hg
1029.6 hPa
VFR
Nov-17
19:00 UTC
Varies @2 KTS 15 miles   -34° C
-29° F
-37° C
-35° F
74% 30.37" Hg
1028.9 hPa
VFR
Nov-17
18:00 UTC
060°
3 KTS
15 miles   -36° C
-33° F
-40° C
-40° F
66% 30.35" Hg
1028.3 hPa
VFR
Nov-17
17:00 UTC
110°
3 KTS
15 miles   -35° C
-31° F
-39° C
-38° F
67% 30.32" Hg
1027.3 hPa
VFR
Nov-17
16:00 UTC
Varies @2 KTS 15 miles Broken
21,000' AGL
-35° C
-31° F
-39° C
-38° F
67% 30.31" Hg
1026.9 hPa
VFR
Nov-17
15:00 UTC
060°
3 KTS
15 miles   -37° C
-35° F
-41° C
-42° F
66% 30.3" Hg
1026.4 hPa
VFR
Nov-17
14:00 UTC
060°
4 KTS
15 miles   -38° C
-36° F
-42° C
-44° F
66% 30.29" Hg
1026 hPa
VFR
Nov-17
13:00 UTC
110°
4 KTS
15 miles   -38° C
-36° F
-42° C
-44° F
66% 30.27" Hg
1025.4 hPa
VFR
Nov-17
12:00 UTC
170°
3 KTS
15 miles   -35° C
-31° F
-38° C
-36° F
74% 30.25" Hg
1024.6 hPa
VFR
Nov-17
11:00 UTC
050°
3 KTS
15 miles   -36° C
-33° F
-40° C
-40° F
66% 30.24" Hg
1024.3 hPa
VFR
Nov-17
10:00 UTC
090°
2 KTS
15 miles   -34° C
-29° F
-38° C
-36° F
67% 30.22" Hg
1023.7 hPa
VFR
Nov-17
09:00 UTC
Varies @2 KTS 15 miles   -34° C
-29° F
-38° C
-36° F
67% 30.21" Hg
1023.3 hPa
VFR
Nov-17
08:00 UTC
15 miles   -34° C
-29° F
-38° C
-36° F
67% 30.18" Hg
1022.3 hPa
VFR
Nov-17
07:00 UTC
15 miles   -35° C
-31° F
-39° C
-38° F
67% 30.15" Hg
1021.5 hPa
VFR
Nov-17
06:00 UTC
060°
2 KTS
15 miles   -36° C
-33° F
-40° C
-40° F
66% 30.14" Hg
1021 hPa
VFR